Location: Palmerston North
(40.3500°S, 175.6170°E)
Time: 07:12:03
(UTC+13:00)

Lacrosse 5 rocket - Pass Details

Date: 24 January 2019
Orbit: 469 x 630 km, 57.0° (Epoch: 06 February)

Event Time Altitude Azimuth Distance (km) Brightness Sun altitude
Rises 22:49:12 0° 213° (SSW) 2,578 6.3 -19.7°
Reaches altitude 10° 22:53:18 10° 170° (S) 1,670 4.3 -20.2°
Maximum altitude 22:53:57 10° 159° (SSE) 1,645 4.1 -20.3°
Drops below altitude 10° 22:54:37 10° 149° (SSE) 1,664 4.0 -20.4°
Enters shadow 22:56:34 - 123° (ESE) 1,963 4.1 -20.6°
